Weather in Jelgava

Latvia     56°39′08″N   23°43′28″E
temp.,
°C
wind,
m/s
gust,
m/s
humid.,
%
clouds,
%
prec.,
mm/h
press.,
hPa
HPBL,
m
12 may, wed
wed1200:00+15se414755 0.0 1017508
03:00+12se412825 0.0 1017336
06:00+11se311815 0.0 1017273
09:00+17sse511645 0.0 1017495
12:00+22se6105193 0.0 10161176
15:00+23sse6950100 0.0 10161771
18:00+23sse58561 0.0 10151695
21:00+17se410740 0.0 1015575
13 may, thu
thu1300:00+12ese39820 0.0 1015209
03:00+10ese22831 0.0 101329
06:00+11n247425 0.0 1010100
09:00+13ene3978100 0.1 1009526
12:00+16ese7106060 0.1 10091396
15:00+18se6104593 0.1 10082087
18:00+15ese586195 0.1 10071407
21:00+11ese38799 0.4 1007589
14 may, fri
fri1400:00+10ese3979100 0.1 1007696
03:00+10e3976100 0.1 1006739
06:00+10ene3985100 0.2 1004496
09:00+10e41085100 0.6 1004663
12:00+10ese41094100 0.8 1004755
15:00+12se489397 1.2 1004608
18:00+14se357788 0.2 1004918
21:00+12ese37930 0.3 1004281
15 may, sat
sat1500:00+9se269821 0.0 1005136
03:00+9sse259822 0.0 100596
06:00+8sw249931 0.0 100596
09:00+13wsw236872 0.0 1006416
12:00+17wsw2252100 0.0 10071048
15:00+19w234874 0.0 10061629
18:00+18nnw345076 0.0 10061490
21:00+9n378585 0.0 1008224
16 may, sun
sun1600:00+7nnw2490100 0.0 1009135
03:00+7nw119444 0.0 101033
06:00+6nw119553 0.0 101120
09:00+13wsw116763 0.0 1011493
12:00+18w115058 0.0 10111232
15:00+20nnw014318 0.0 10111782
18:00+18nne225192 0.0 1011631
21:00+13ne247153 0.0 101274